EW4169 Weather Reports


time (UTC)temp
F
wind
direction
speed
knots
gust
knots
rain 1hr
in
rain 24hr
in
rain mn
in
humidity
%
barometer
mb
20260504044517 40 256 0.0 0.9 0.00 0.00 0.00 71 1013.4
20260504043042 41 256 0.0 0.9 0.00 0.00 0.00 68 1013.3
20260504041521 41 259 1.7 2.6 0.00 0.00 0.00 68 1013.3
20260504040100 41 193 0.0 0.0 0.00 0.00 0.00 67 1013.4
20260504034516 41 193 0.0 0.0 0.00 0.00 0.00 66 1013.2
20260504033036 42 193 0.0 0.9 0.00 0.00 0.00 64 1013.3
20260504031514 43 208 0.0 1.7 0.00 0.00 0.00 64 1013.2
20260504030036 43 205 0.0 0.9 0.00 0.00 0.00 65 1013.2
20260504024515 43 205 0.0 0.9 0.00 0.00 0.00 65 1013.3
20260504023038 42 205 0.0 0.9 0.00 0.00 0.00 66 1013.3
20260504021520 43 205 0.0 0.9 0.00 0.00 0.00 65 1013.4
20260504020046 43 205 0.0 0.9 0.00 0.00 0.00 63 1013.4
20260504014525 44 205 0.0 0.0 0.00 0.00 0.00 59 1013.2
20260504013044 45 205 0.0 0.0 0.00 0.00 0.00 55 1013.2
20260504011524 47 205 0.0 1.7 0.00 0.00 0.00 51 1013.0
20260504010052 49 212 0.0 1.7 0.00 0.00 0.00 49 1013.1
20260504004542 50 207 0.0 3.5 0.00 0.00 0.00 47 1012.9
20260504003100 51 226 3.5 9.6 0.00 0.00 0.00 46 1012.8
20260504001526 52 238 3.5 9.6 0.00 0.00 0.00 44 1012.7
20260504000005 53 253 2.6 10.4 0.00 0.00 0.00 43 1012.7
20260503234518 54 224 1.7 10.4 0.00 0.00 0.00 42 1012.6
20260503233046 55 270 2.6 8.7 0.00 0.00 0.00 40 1012.6
20260503231524 55 279 4.3 13.0 0.00 0.00 0.00 40 1012.6
20260503230044 55 238 7.0 16.5 0.00 0.00 0.00 39 1012.6
20260503224512 55 224 5.2 13.9 0.00 0.00 0.00 42 1012.6
20260503223048 55 268 7.8 12.2 0.00 0.00 0.00 39 1012.6
20260503221534 54 231 4.3 12.2 0.00 0.00 0.00 41 1012.6
20260503220052 55 253 6.1 17.4 0.00 0.00 0.00 41 1012.8
20260503214518 55 238 7.8 13.0 0.00 0.00 0.00 39 1012.8
20260503213052 55 277 7.8 15.6 0.00 0.00 0.00 40 1012.7
20260503211512 55 280 11.3 16.5 0.00 0.00 0.00 38 1012.7
20260503210046 55 272 7.8 16.5 0.00 0.00 0.00 40 1012.7
20260503204519 54 234 6.1 13.9 0.00 0.00 0.00 38 1012.8
20260503203047 54 293 7.0 15.6 0.00 0.00 0.00 39 1012.9
20260503201600 54 284 10.4 16.5 0.00 0.00 0.00 40 1013.0
20260503201502 55 270 8.7 16.5 0.00 0.00 0.00 39 1013.0
20260503200047 54 231 8.7 18.2 0.00 0.00 0.00 40 1013.2
20260503194523 54 272 7.8 15.6 0.00 0.00 0.00 41 1013.3
20260503193049 55 295 9.6 17.4 0.00 0.00 0.00 38 1013.5
20260503191530 53 262 9.6 20.0 0.00 0.00 0.00 42 1013.7
20260503190011 54 275 11.3 18.2 0.00 0.00 0.00 41 1013.9
20260503184543 52 264 6.1 15.6 0.00 0.00 0.00 41 1013.9
20260503183016 53 273 8.7 14.8 0.00 0.00 0.00 42 1014.1
20260503181538 53 257 7.0 16.5 0.00 0.00 0.00 42 1014.2
20260503180020 52 269 7.0 17.4 0.00 0.00 0.00 46 1014.2
20260503174556 52 266 6.1 13.0 0.00 0.00 0.00 45 1014.4
20260503173023 51 258 9.6 15.6 0.00 0.00 0.00 46 1014.4
20260503171557 51 275 8.7 16.5 0.00 0.00 0.00 43 1014.6
20260503081513 35 235 0.9 6.1 0.00 0.00 0.00 73 1014.6
20260503071521 35 293 4.3 7.8 0.00 0.00 0.00 72 1014.2
20260503070113 36 289 2.6 8.7 0.00 0.00 0.00 72 1014.2
20260503054546 37 280 3.5 7.0 0.00 0.01 0.00 68 1014.3
20260503053022 37 278 0.9 4.3 0.00 0.01 0.00 69 1014.3
20260503051548 38 279 1.7 3.5 0.00 0.01 0.00 67 1014.4
20260503050024 38 274 4.3 8.7 0.00 0.02 0.00 65 1014.5